Weather History for PHHI - September, 2013

Change the Weather History Date:

Wednesday, September 18, 2013

  Actual Average Record
Temperature  
Mean Temperature 76 °F -  
Max Temperature 84 °F 82 °F 91 °F (2002)
Min Temperature 69 °F 68 °F 64 °F (2012)
Cooling Degree Days 12    
Growing Degree Days 26 (Base 50)    
Moisture  
Dew Point 66 °F    
Average Humidity 76    
Maximum Humidity 89    
Minimum Humidity 49    
Precipitation  
Precipitation 0.02 in - - ()
Sea Level Pressure  
Sea Level Pressure 30.00 in    
Wind  
Wind Speed 5 mph (ENE)    
Max Wind Speed 17 mph    
Max Gust Speed 22 mph    
Visibility 10 miles    
Events Rain    
Averages and records for this station are not official NWS values.
T = Trace of Precipitation, MM = Missing Value Source: NWS Daily Summary

Daily Weather History Graph

Daily Weather History Graph

Search for Another Location

Airport or City:

Trip Planner

Search our weather history database for the weather conditions in past years. The results will help you decide how hot, cold, wet, or windy it might be!

Date:

Astronomy

Sep. 18, 2013 Rise Set
Actual Time 6:20 AM HST 6:31 PM HST
Civil Twilight 5:57 AM HST 6:54 PM HST
Nautical Twilight 5:31 AM HST 7:19 PM HST
Astronomical Twilight 5:05 AM HST 7:45 PM HST
Moon 6:05 PM HST (9/18) 5:35 AM HST (9/18)
Length of Visible Light 12h 56m
Length of Day
12h 11m
Full, 100% of the Moon is Illuminated
Sep 18
Full
Sep 19
Full
Sep 26
Last Quarter
Oct 4
New
Oct 11
First Quarter

Hourly Weather History & Observations

Time (HST) Temp. Heat Index Dew Point Humidity Pressure Visibility Wind Dir Wind Speed Gust Speed Precip Events Conditions
12:10 AM 73.4 °F - 66.2 °F 78% 30.03 in 10.0 mi ENE 1.2 mph - N/A   Clear
12:58 AM 71.1 °F - 65.8 °F 84% 29.99 in 10.0 mi Variable 2.3 mph - 0.00 in   Partly Cloudy
1:58 AM 72.1 °F - 65.8 °F 80% 29.98 in 10.0 mi WNW 5.8 mph - N/A   Mostly Cloudy
2:29 AM 69.8 °F - 66.2 °F 88% 30.00 in 10.0 mi WNW 3.5 mph - N/A Rain Light Rain
2:39 AM 71.6 °F - 66.2 °F 83% 29.99 in 10.0 mi Variable 2.3 mph - N/A   Mostly Cloudy
2:58 AM 72.3 °F - 66.6 °F 82% 29.96 in 10.0 mi Variable 3.5 mph - 0.00 in   Partly Cloudy
3:00 AM 71.6 °F - 66.2 °F 83% 29.99 in 10.0 mi North 3.5 mph - N/A   Light Drizzle
3:14 AM 69.8 °F - 66.2 °F 88% 29.99 in 10.0 mi West 5.8 mph - N/A   Partly Cloudy
3:24 AM 69.8 °F - 66.2 °F 88% 29.99 in 10.0 mi NW 4.6 mph - N/A   Light Drizzle
3:35 AM 69.8 °F - 66.2 °F 88% 29.99 in 10.0 mi Calm Calm - N/A   Partly Cloudy
3:38 AM 69.8 °F - 66.2 °F 88% 29.98 in 9.0 mi Calm Calm - N/A Rain Light Rain
3:50 AM 69.8 °F - 66.2 °F 88% 29.98 in 10.0 mi ESE 2.3 mph - N/A   Scattered Clouds
3:58 AM 70.5 °F - 67.1 °F 89% 29.96 in 10.0 mi Variable 1.2 mph - 0.00 in   Partly Cloudy
4:58 AM 71.4 °F - 67.3 °F 87% 29.95 in 10.0 mi East 5.8 mph - N/A   Clear
5:58 AM 71.1 °F - 66.7 °F 86% 29.96 in 10.0 mi Variable 5.8 mph - 0.01 in   Clear
6:58 AM 71.4 °F - 67.1 °F 86% 29.98 in 10.0 mi Calm Calm - N/A   Clear
7:58 AM 75.2 °F - 67.3 °F 76% 29.99 in 10.0 mi East 4.6 mph - N/A   Mostly Cloudy
8:23 AM 75.2 °F - 68.0 °F 78% 30.02 in 10.0 mi ESE 6.9 mph - N/A   Overcast
8:28 AM 75.2 °F - 68.0 °F 78% 30.03 in 10.0 mi East 5.8 mph - N/A   Light Drizzle
8:37 AM 75.2 °F - 68.0 °F 78% 30.03 in 10.0 mi ENE 17.3 mph - N/A   Overcast
8:58 AM 76.1 °F - 65.8 °F 70% 30.01 in 10.0 mi ENE 8.1 mph - 0.00 in   Scattered Clouds
9:43 AM 77.0 °F - 66.2 °F 69% 30.04 in 10.0 mi SE 6.9 mph - N/A   Mostly Cloudy
9:48 AM 77.0 °F - 66.2 °F 69% 30.04 in 10.0 mi ESE 8.1 mph - N/A   Overcast
9:53 AM 78.8 °F - 66.2 °F 65% 30.04 in 10.0 mi Variable 5.8 mph - N/A   Overcast
9:58 AM 78.6 °F - 66.7 °F 67% 30.01 in 10.0 mi Variable 4.6 mph - N/A   Overcast
10:03 AM 78.8 °F - 66.2 °F 65% 30.04 in 10.0 mi Variable 4.6 mph - N/A   Mostly Cloudy
10:58 AM 80.2 °F 82.2 °F 65.5 °F 61% 30.01 in 10.0 mi ESE 12.7 mph 21.9 mph N/A   Mostly Cloudy
11:58 AM 82.0 °F 83.8 °F 64.9 °F 56% 29.99 in 10.0 mi East 12.7 mph 20.7 mph N/A   Partly Cloudy
12:58 PM 82.9 °F 84.4 °F 64.0 °F 53% 29.98 in 10.0 mi ESE 10.4 mph - N/A   Scattered Clouds
1:58 PM 83.1 °F 84.6 °F 64.4 °F 53% 29.96 in 10.0 mi East 16.1 mph 21.9 mph N/A   Mostly Cloudy
2:03 PM 82.4 °F 83.9 °F 64.4 °F 54% 29.99 in 10.0 mi East 12.7 mph - N/A   Scattered Clouds
2:33 PM 84.2 °F 85.6 °F 64.4 °F 51% 29.98 in 10.0 mi ENE 15.0 mph 19.6 mph N/A   Partly Cloudy
2:58 PM 83.8 °F 84.7 °F 62.8 °F 49% 29.95 in 10.0 mi ENE 12.7 mph - N/A   Clear
3:58 PM 83.5 °F 85.1 °F 64.6 °F 53% 29.95 in 10.0 mi ENE 9.2 mph - N/A   Scattered Clouds
4:58 PM 81.3 °F 83.2 °F 65.3 °F 58% 29.95 in 10.0 mi ENE 9.2 mph 16.1 mph N/A   Mostly Cloudy
5:58 PM 79.2 °F - 65.7 °F 63% 29.96 in 10.0 mi ENE 8.1 mph - N/A   Partly Cloudy
6:58 PM 76.1 °F - 66.2 °F 71% 29.98 in 10.0 mi NE 8.1 mph - N/A   Clear
7:58 PM 75.2 °F - 66.6 °F 74% 29.98 in 10.0 mi NE 5.8 mph - N/A   Clear
8:58 PM 74.5 °F - 66.9 °F 77% 29.99 in 10.0 mi NNE 6.9 mph - N/A   Partly Cloudy
9:22 PM 75.2 °F - 68.0 °F 78% 30.03 in 10.0 mi Variable 4.6 mph - N/A   Light Drizzle
9:33 PM 73.4 °F - 68.0 °F 83% 30.03 in 10.0 mi ENE 8.1 mph - N/A   Scattered Clouds
9:36 PM 73.4 °F - 68.0 °F 83% 30.03 in 10.0 mi ENE 5.8 mph - N/A   Light Drizzle
9:45 PM 73.4 °F - 68.0 °F 83% 30.03 in 10.0 mi ENE 6.9 mph - N/A   Partly Cloudy
9:58 PM 72.7 °F - 67.6 °F 84% 30.00 in 10.0 mi NE 5.8 mph - 0.00 in   Partly Cloudy
10:58 PM 72.5 °F - 66.9 °F 83% 29.99 in 10.0 mi NE 5.8 mph - N/A   Partly Cloudy
11:03 PM 73.4 °F - 68.0 °F 83% 30.03 in 9.0 mi NE 9.2 mph - N/A Rain Light Rain
11:20 PM 73.4 °F - 68.0 °F 83% 30.03 in 10.0 mi ENE 4.6 mph - N/A   Partly Cloudy
11:41 PM 71.6 °F - 68.0 °F 88% 30.02 in 10.0 mi NE 8.1 mph - N/A   Light Drizzle
11:50 PM 71.6 °F - 68.0 °F 88% 30.02 in 10.0 mi NE 5.8 mph - N/A   Clear
11:58 PM 72.0 °F - 67.6 °F 86% 29.99 in 10.0 mi ENE 4.6 mph - 0.01 in   Clear